When you browse on this site, cookies collect data to enhance your experience and personalize the content and advertising you see.
Visit our Privacy Policy to learn more. By continuing to use the site, you agree to this use of cookies and data.
  • In Romania
  • List of Countries
  • For 7 days
  • Water Temperature
  • Weather Map
  • Weather Widgets
  • user-avatar
    Login

    Hourly Weather Konstantyna

    Today, 3 June, Wednesday

    Time Temperature Precipitation Wind Pressure Humidity
    00:00 +18°C° 0 mm 0 mps 708 mmHg 60%
    01:00 +17°C° 0 mm 0 mps 708 mmHg 60%
    02:00 +17°C° 0 mm 0 mps 707 mmHg 61%
    03:00 +17°C° 0 mm 0 mps 707 mmHg 61%
    04:00 +18°C° 0 mm 0 mps 707 mmHg 57%
    05:00 +19°C° 0 mm 0 mps 707 mmHg 54%
    06:00 +22°C° 0 mm 1 mps 707 mmHg 51%
    07:00 +24°C° 0 mm 1 mps 708 mmHg 46%
    08:00 +26°C° 0 mm 1 mps 708 mmHg 41%
    09:00 +28°C° 0 mm 1 mps 709 mmHg 37%
    10:00 +29°C° 0 mm 1 mps 708 mmHg 34%
    11:00 +30°C° 0 mm 2 mps 708 mmHg 32%
    12:00 +31°C° 0 mm 2 mps 708 mmHg 29%
    13:00 +31°C° 0 mm 2 mps 707 mmHg 29%
    14:00 +31°C° 0 mm 2 mps 707 mmHg 29%
    15:00 +31°C° 0 mm 3 mps 707 mmHg 29%
    16:00 +30°C° 0 mm 2 mps 706 mmHg 35%
    17:00 +28°C° 0 mm 2 mps 706 mmHg 41%
    18:00 +27°C° 0 mm 2 mps 705 mmHg 46%
    19:00 +26°C° 0 mm 2 mps 705 mmHg 48%
    20:00 +24°C° 0 mm 1 mps 706 mmHg 50%
    21:00 +23°C° 0 mm 1 mps 706 mmHg 52%
    22:00 +23°C° 0 mm 1 mps 705 mmHg 54%
    23:00 +22°C° 0 mm 1 mps 705 mmHg 55%

    Tomorrow, 4 June, Thursday

    Time Temperature Precipitation Wind Pressure Humidity
    00:00 +22°C° 0 mm 1 mps 704 mmHg 57%
    01:00 +22°C° 0 mm 1 mps 704 mmHg 57%
    02:00 +22°C° 0 mm 1 mps 704 mmHg 57%
    03:00 +22°C° 0 mm 1 mps 704 mmHg 57%
    04:00 +23°C° 0 mm 1 mps 704 mmHg 55%
    05:00 +24°C° 0 mm 2 mps 704 mmHg 53%
    06:00 +25°C° 0 mm 2 mps 704 mmHg 51%
    07:00 +27°C° 0 mm 3 mps 705 mmHg 43%
    08:00 +30°C° 0 mm 5 mps 705 mmHg 34%
    09:00 +33°C° 0 mm 6 mps 706 mmHg 26%
    10:00 +34°C° 0 mm 6 mps 705 mmHg 25%
    11:00 +34°C° 0 mm 6 mps 705 mmHg 24%
    12:00 +35°C° 0 mm 6 mps 705 mmHg 23%
    13:00 +34°C° 0 mm 6 mps 705 mmHg 27%
    14:00 +32°C° 0 mm 6 mps 704 mmHg 30%
    15:00 +30°C° 0 mm 5 mps 704 mmHg 34%
    16:00 +28°C° 0.1 mm 4 mps 704 mmHg 39%
    17:00 +26°C° 0.1 mm 4 mps 704 mmHg 44%
    18:00 +24°C° 0.1 mm 3 mps 703 mmHg 50%
    19:00 +21°C° 0.6 mm 2 mps 704 mmHg 58%
    20:00 +20°C° 0.6 mm 2 mps 704 mmHg 65%
    21:00 +18°C° 0.6 mm 2 mps 705 mmHg 73%
    22:00 +19°C° 0.5 mm 1 mps 705 mmHg 76%
    23:00 +19°C° 0.5 mm 1 mps 705 mmHg 78%

    Day after tomorrow, 5 June, Friday

    Time Temperature Precipitation Wind Pressure Humidity
    00:00 +19°C° 0.5 mm 1 mps 705 mmHg 81%
    01:00 +18°C° 0.2 mm 1 mps 704 mmHg 82%
    02:00 +18°C° 0.2 mm 1 mps 704 mmHg 84%
    03:00 +16°C° 0.2 mm 1 mps 704 mmHg 86%
    04:00 +18°C° 0 mm 1 mps 704 mmHg 81%
    05:00 +18°C° 0 mm 2 mps 704 mmHg 77%
    06:00 +19°C° 0 mm 2 mps 704 mmHg 72%
    07:00 +20°C° 0 mm 4 mps 705 mmHg 63%
    08:00 +21°C° 0 mm 6 mps 706 mmHg 54%
    09:00 +23°C° 0 mm 8 mps 706 mmHg 45%
    10:00 +23°C° 0 mm 8 mps 707 mmHg 42%
    11:00 +24°C° 0 mm 8 mps 707 mmHg 40%
    12:00 +24°C° 0 mm 8 mps 707 mmHg 37%
    13:00 +24°C° 0 mm 8 mps 707 mmHg 37%
    14:00 +24°C° 0 mm 7 mps 707 mmHg 37%
    15:00 +24°C° 0 mm 7 mps 708 mmHg 36%
    16:00 +23°C° 0 mm 5 mps 708 mmHg 40%
    17:00 +22°C° 0 mm 4 mps 708 mmHg 44%
    18:00 +21°C° 0 mm 3 mps 708 mmHg 48%
    19:00 +19°C° 0 mm 2 mps 708 mmHg 53%
    20:00 +19°C° 0 mm 1 mps 708 mmHg 59%
    21:00 +16°C° 0 mm 0 mps 709 mmHg 65%
    22:00 +16°C° 0 mm 0 mps 708 mmHg 64%
    23:00 +16°C° 0 mm 1 mps 708 mmHg 63%

    6 June, Saturday

    Time Temperature Precipitation Wind Pressure Humidity
    00:00 +16°C° 0 mm 1 mps 708 mmHg 62%
    01:00 +16°C° 0 mm 1 mps 708 mmHg 61%
    02:00 +16°C° 0 mm 1 mps 708 mmHg 61%
    03:00 +15°C° 0 mm 0 mps 708 mmHg 61%
    04:00 +16°C° 0 mm 0 mps 708 mmHg 57%
    05:00 +17°C° 0 mm 0 mps 708 mmHg 53%
    06:00 +21°C° 0 mm 1 mps 709 mmHg 49%
    07:00 +23°C° 0 mm 1 mps 709 mmHg 45%
    08:00 +25°C° 0 mm 1 mps 710 mmHg 40%
    09:00 +27°C° 0 mm 2 mps 710 mmHg 35%
    10:00 +28°C° 0 mm 2 mps 710 mmHg 30%
    11:00 +30°C° 0 mm 2 mps 710 mmHg 26%
    12:00 +31°C° 0 mm 3 mps 710 mmHg 21%
    13:00 +33°C° 0 mm 3 mps 710 mmHg 20%
    14:00 +33°C° 0 mm 4 mps 709 mmHg 20%
    15:00 +34°C° 0 mm 5 mps 709 mmHg 19%
    16:00 +32°C° 0 mm 4 mps 709 mmHg 25%
    17:00 +29°C° 0 mm 3 mps 708 mmHg 32%
    18:00 +28°C° 0 mm 2 mps 708 mmHg 38%
    19:00 +26°C° 0 mm 2 mps 708 mmHg 41%
    20:00 +25°C° 0 mm 1 mps 708 mmHg 44%
    21:00 +22°C° 0 mm 0 mps 708 mmHg 48%
    22:00 +22°C° 0 mm 0 mps 708 mmHg 47%
    23:00 +22°C° 0 mm 0 mps 707 mmHg 47%

    7 June, Sunday

    Time Temperature Precipitation Wind Pressure Humidity
    00:00 +24°C° 0 mm 1 mps 707 mmHg 47%
    01:00 +24°C° 0 mm 1 mps 707 mmHg 46%
    02:00 +24°C° 0 mm 1 mps 707 mmHg 46%
    03:00 +24°C° 0 mm 1 mps 706 mmHg 45%
    04:00 +24°C° 0.1 mm 1 mps 707 mmHg 46%
    05:00 +25°C° 0.1 mm 1 mps 707 mmHg 47%
    06:00 +25°C° 0.1 mm 1 mps 708 mmHg 48%
    07:00 +26°C° 0 mm 2 mps 708 mmHg 44%
    08:00 +28°C° 0 mm 3 mps 709 mmHg 40%
    09:00 +29°C° 0 mm 3 mps 709 mmHg 36%
    10:00 +29°C° 0 mm 4 mps 709 mmHg 35%
    11:00 +30°C° 0 mm 4 mps 709 mmHg 34%
    12:00 +30°C° 0 mm 5 mps 709 mmHg 33%
    13:00 +30°C° 0 mm 5 mps 709 mmHg 34%
    14:00 +30°C° 0 mm 5 mps 709 mmHg 34%
    15:00 +30°C° 0 mm 5 mps 708 mmHg 34%
    16:00 +29°C° 0 mm 5 mps 708 mmHg 38%
    17:00 +27°C° 0 mm 4 mps 708 mmHg 42%
    18:00 +26°C° 0 mm 4 mps 708 mmHg 45%
    19:00 +24°C° 0 mm 3 mps 709 mmHg 50%
    20:00 +23°C° 0 mm 2 mps 709 mmHg 54%
    21:00 +22°C° 0 mm 1 mps 709 mmHg 59%
    22:00 +21°C° 0 mm 1 mps 709 mmHg 59%
    23:00 +21°C° 0 mm 1 mps 709 mmHg 60%

    8 June, Monday

    Time Temperature Precipitation Wind Pressure Humidity
    00:00 +21°C° 0 mm 1 mps 708 mmHg 61%
    01:00 +18°C° 0 mm 0 mps 708 mmHg 61%
    02:00 +18°C° 0 mm 0 mps 708 mmHg 61%
    03:00 +18°C° 0 mm 0 mps 707 mmHg 61%
    04:00 +19°C° 0 mm 0 mps 708 mmHg 59%
    05:00 +20°C° 0 mm 0 mps 708 mmHg 56%
    06:00 +20°C° 0 mm 0 mps 708 mmHg 54%
    07:00 +24°C° 0 mm 1 mps 708 mmHg 50%
    08:00 +25°C° 0 mm 1 mps 709 mmHg 46%
    09:00 +27°C° 0 mm 2 mps 709 mmHg 42%
    10:00 +28°C° 0 mm 2 mps 709 mmHg 40%
    11:00 +29°C° 0 mm 3 mps 709 mmHg 37%
    12:00 +30°C° 0 mm 3 mps 709 mmHg 35%
    13:00 +29°C° 0 mm 4 mps 709 mmHg 38%
    14:00 +29°C° 0 mm 5 mps 709 mmHg 40%
    15:00 +28°C° 0 mm 6 mps 708 mmHg 43%
    16:00 +26°C° 0.8 mm 5 mps 708 mmHg 51%
    17:00 +23°C° 0.8 mm 4 mps 708 mmHg 59%
    18:00 +21°C° 0.8 mm 4 mps 708 mmHg 67%
    19:00 +20°C° 0.8 mm 3 mps 709 mmHg 72%
    20:00 +19°C° 0.8 mm 2 mps 709 mmHg 77%
    21:00 +19°C° 0.8 mm 1 mps 709 mmHg 83%
    22:00 +19°C° 0.5 mm 1 mps 709 mmHg 83%
    23:00 +18°C° 0.5 mm 1 mps 709 mmHg 83%
    Show more